Whiting Fld NAS, FL

7:52 AM CDT on May 24, 2017 (GMT -0500)
Whiting Field Naval Air Station (North)

Weather History for KNSE - March, 2014

Change the Weather History Date:

Saturday, March 22, 2014

  Actual Average Record
Temperature  
Mean Temperature 69 °F -  
Max Temperature 81 °F 70 °F 88 °F (2017)
Min Temperature 55 °F 49 °F 33 °F (2016)
Cooling Degree Days 4    
Growing Degree Days 19 (Base 50)    
Moisture  
Dew Point 57 °F    
Average Humidity 80    
Maximum Humidity 97    
Minimum Humidity 31    
Precipitation  
Precipitation 0.00 in - - ()
Sea Level Pressure  
Sea Level Pressure 30.01 in    
Wind  
Wind Speed 2 mph (SSW)    
Max Wind Speed 14 mph    
Max Gust Speed -    
Visibility 5 miles    
Events Fog , Rain    
Averages and records for this station are not official NWS values.
T = Trace of Precipitation, MM = Missing Value Source: NWS Daily Summary

Daily Weather History Graph

Daily Weather History Graph

Search for Another Location

Airport or City:

Trip Planner

Search our weather history database for the weather conditions in past years. The results will help you decide how hot, cold, wet, or windy it might be!

Date:

Astronomy

Mar. 22, 2014 Rise Set
Actual Time 6:49 AM CDT 7:00 PM CDT
Civil Twilight 6:25 AM CDT 7:24 PM CDT
Nautical Twilight 5:57 AM CDT 7:53 PM CDT
Astronomical Twilight 5:28 AM CDT 8:21 PM CDT
Moon 12:00 AM CDT (3/22) 10:51 AM CDT (3/22)
Length of Visible Light 12h 59m
Length of Day
12h 11m
Waning Gibbous, 65% of the Moon is Illuminated
Mar 22
Waning Gibbous
Mar 23
Last Quarter
Mar 30
New
Apr 7
First Quarter
Apr 15
Full

Hourly Weather History & Observations

Time (CDT) Temp. Dew Point Humidity Pressure Visibility Wind Dir Wind Speed Gust Speed Precip Events Conditions
12:56 AM 57.9 °F 57.0 °F 97% 30.00 in 0.2 mi Calm Calm - N/A Fog Fog
1:56 AM 59.0 °F 57.9 °F 96% 29.99 in 0.2 mi Calm Calm - N/A Fog Fog
2:56 AM 60.1 °F 57.9 °F 93% 29.98 in 0.2 mi Calm Calm - N/A Fog Fog
3:56 AM 59.0 °F 57.9 °F 96% 29.99 in 0.2 mi Calm Calm - N/A Fog Fog
4:56 AM 59.0 °F 57.9 °F 96% 29.99 in 0.2 mi Calm Calm - 0.00 in Fog , Rain Light Rain
5:56 AM 59.0 °F 57.9 °F 96% 30.01 in 0.2 mi Calm Calm - 0.00 in Fog , Rain Light Rain
6:56 AM 59.0 °F 57.0 °F 93% 30.02 in 0.1 mi Calm Calm - N/A Fog Fog
7:24 AM 57.9 °F 57.0 °F 97% 30.06 in 0.2 mi Calm Calm - N/A Fog Fog
7:56 AM 57.9 °F 57.0 °F 97% 30.03 in 0.5 mi Calm Calm - N/A Fog Fog
8:56 AM 59.0 °F 57.9 °F 96% 30.05 in 0.2 mi Calm Calm - N/A Fog Fog
9:16 AM 61.0 °F 59.0 °F 93% 30.08 in 0.5 mi Calm Calm - N/A Fog Fog
9:27 AM 62.1 °F 60.1 °F 93% 30.08 in 1.0 mi NNE 3.5 mph - N/A   Overcast
9:37 AM 62.1 °F 60.1 °F 93% 30.09 in 3.0 mi ENE 4.6 mph - N/A   Mostly Cloudy
9:43 AM 62.1 °F 59.0 °F 90% 30.08 in 6.0 mi Variable 3.5 mph - N/A   Mostly Cloudy
9:56 AM 63.0 °F 59.0 °F 87% 30.04 in 7.0 mi ENE 4.6 mph - N/A   Mostly Cloudy
10:56 AM 71.1 °F 53.1 °F 53% 30.05 in 10.0 mi NNW 6.9 mph - N/A   Scattered Clouds
11:56 AM 72.0 °F 53.1 °F 51% 30.02 in 10.0 mi Variable 4.6 mph - N/A   Scattered Clouds
12:56 PM 75.0 °F 50.0 °F 41% 29.99 in 10.0 mi NW 8.1 mph - N/A   Scattered Clouds
1:56 PM 77.0 °F 46.9 °F 34% 29.96 in 10.0 mi Calm Calm - N/A   Scattered Clouds
2:56 PM 81.0 °F 48.0 °F 31% 29.95 in 10.0 mi Variable 6.9 mph - N/A   Scattered Clouds
3:56 PM 77.0 °F 57.9 °F 52% 29.94 in 10.0 mi South 12.7 mph - N/A   Scattered Clouds
4:56 PM 73.9 °F 60.1 °F 62% 29.94 in 9.0 mi South 12.7 mph - N/A   Clear
5:56 PM 71.1 °F 57.0 °F 61% 29.96 in 9.0 mi SSW 13.8 mph - N/A   Clear
6:56 PM 66.0 °F 57.9 °F 75% 29.98 in 8.0 mi SSW 10.4 mph - N/A   Clear
7:56 PM 64.0 °F 57.9 °F 80% 30.00 in 9.0 mi SSW 9.2 mph - N/A   Clear
8:56 PM 62.1 °F 57.9 °F 86% 30.01 in 8.0 mi SSW 4.6 mph - N/A   Clear
9:56 PM 62.1 °F 57.9 °F 86% 30.01 in 8.0 mi Calm Calm - 0.00 in Rain Light Rain
10:56 PM 57.9 °F 55.9 °F 93% 30.01 in 5.0 mi SSW 3.5 mph - 0.00 in Rain Light Rain
11:49 PM 57.0 °F 55.0 °F 93% 30.04 in 1.8 mi Calm Calm - 0.00 in   Clear
11:56 PM 55.9 °F 55.0 °F 97% 30.00 in 0.5 mi Calm Calm - 0.00 in Fog , Rain Light Rain